EW8865 Weather Reports


time (UTC)temp
F
wind
direction
speed
knots
gust
knots
rain 1hr
in
rain 24hr
in
rain mn
in
humidity
%
barometer
mb
20260504204503 54 98 0.9 1.7 0.00 0.13 0.13 80 1014.5
20260504204004 54 98 0.9 1.7 0.00 0.13 0.13 80 1014.5
20260504203503 54 98 1.7 2.6 0.00 0.13 0.13 80 1014.5
20260504203003 54 98 0.9 2.6 0.00 0.13 0.13 80 1014.4
20260504202504 55 98 0.9 2.6 0.00 0.13 0.13 79 1014.4
20260504202004 55 98 0.0 0.0 0.00 0.13 0.13 79 1014.4
20260504200503 56 98 0.9 1.7 0.00 0.13 0.13 78 1014.2
20260504200003 56 98 0.9 1.7 0.00 0.13 0.13 77 1014.2
20260504195503 56 98 0.9 2.6 0.00 0.13 0.13 76 1014.0
20260504195004 57 98 0.0 2.6 0.00 0.13 0.13 76 1014.0
20260504194504 57 98 0.9 2.6 0.00 0.13 0.13 76 1014.0
20260504193503 58 98 1.7 2.6 0.00 0.13 0.13 75 1013.9
20260504193005 58 99 1.7 2.6 0.00 0.13 0.13 74 1013.9
20260504192504 58 99 1.7 6.1 0.00 0.13 0.13 73 1013.9
20260504192004 58 106 1.7 2.6 0.00 0.13 0.13 73 1013.8
20260504191503 58 111 0.9 2.6 0.00 0.13 0.13 72 1013.7
20260504191004 59 111 1.7 5.2 0.00 0.13 0.13 72 1013.7
20260504190504 59 112 0.9 1.7 0.00 0.13 0.13 71 1013.7
20260504190004 59 112 1.7 2.6 0.00 0.13 0.13 71 1013.6
20260504185503 59 112 1.7 2.6 0.00 0.13 0.13 70 1013.6
20260504185004 59 113 1.7 5.2 0.00 0.13 0.13 70 1013.6
20260504184503 60 114 2.6 7.0 0.00 0.13 0.13 69 1013.5
20260504183504 60 96 2.6 7.0 0.00 0.13 0.13 69 1013.5
20260504182504 61 98 2.6 7.8 0.00 0.13 0.13 68 1013.3
20260504182004 61 103 5.2 8.7 0.00 0.13 0.13 68 1013.3
20260504181004 62 92 4.3 10.4 0.00 0.13 0.13 67 1013.3
20260504180504 62 98 2.6 7.0 0.00 0.13 0.13 67 1013.2
20260504180003 63 83 4.3 7.0 0.00 0.13 0.13 66 1013.2
20260504175504 63 85 3.5 6.1 0.00 0.14 0.13 65 1013.2
20260504175004 63 96 4.3 7.8 0.00 0.16 0.13 65 1013.2
20260504174503 64 109 5.2 7.8 0.00 0.17 0.13 65 1013.2
20260504174004 64 96 3.5 7.0 0.00 0.20 0.13 65 1013.2
20260504173504 64 111 5.2 8.7 0.00 0.21 0.13 64 1013.2
20260504173004 64 106 1.7 5.2 0.00 0.21 0.13 66 1013.0
20260504172503 64 115 4.3 7.0 0.00 0.21 0.13 66 1013.1
20260504172004 63 118 1.7 6.1 0.00 0.21 0.13 67 1013.1
20260504171504 63 107 2.6 5.2 0.00 0.21 0.13 67 1013.2
20260504170504 63 62 1.7 2.6 0.00 0.21 0.13 66 1013.2
20260504151003 64 4 2.6 7.0 0.00 0.21 0.13 68 1013.5
20260504150503 64 89 2.6 8.7 0.00 0.21 0.13 68 1013.6
20260504140503 64 52 4.3 10.4 0.00 0.21 0.13 71 1013.9
20260504130504 60 94 5.2 10.4 0.00 0.21 0.13 76 1014.1
20260504110504 58 87 1.7 6.1 0.00 0.21 0.13 79 1014.1
20260504100503 59 74 4.3 10.4 0.00 0.21 0.13 79 1013.7
20260504082003 54 103 4.3 10.4 0.00 0.21 0.13 90 1013.3
20260504081504 54 111 4.3 10.4 0.00 0.21 0.13 90 1013.3
20260504081004 54 84 7.0 13.0 0.00 0.21 0.13 90 1013.3
20260504080505 54 88 6.1 12.2 0.00 0.21 0.13 91 1013.3
20260504050504 53 104 0.9 1.7 0.00 0.08 0.00 91 1011.7
20260504050004 53 96 1.7 2.6 0.00 0.08 0.00 91 1011.7
20260504045504 53 88 1.7 2.6 0.00 0.08 0.00 91 1011.6
20260504045004 53 86 0.9 2.6 0.00 0.08 0.00 92 1011.6
20260504044504 53 89 0.0 0.0 0.00 0.08 0.00 92 1011.6
20260504044005 53 92 0.0 0.0 0.00 0.08 0.00 92 1011.5
20260504043003 53 89 0.0 0.0 0.00 0.08 0.00 92 1011.4
20260504042503 53 89 0.0 0.0 0.00 0.08 0.00 92 1011.4
20260504042004 53 89 0.0 0.0 0.00 0.08 0.00 92 1011.5
20260504041504 53 89 0.0 0.0 0.00 0.08 0.00 92 1011.6
20260504041004 53 89 0.0 0.0 0.00 0.08 0.00 92 1011.6
20260504040503 53 89 0.0 0.0 0.00 0.08 0.00 92 1011.5
20260504040003 53 89 0.0 0.0 0.00 0.08 0.00 92 1011.5
20260504034503 53 84 0.0 0.0 0.00 0.08 0.00 92 1011.4
20260504034004 53 82 0.0 0.0 0.00 0.08 0.00 92 1011.4
20260504033003 53 79 0.0 0.0 0.00 0.08 0.00 92 1011.4
20260504032003 53 79 0.0 0.0 0.00 0.08 0.00 92 1011.4
20260504031003 53 79 0.0 0.0 0.00 0.08 0.00 92 1011.4
20260504030004 53 79 0.0 0.0 0.00 0.08 0.00 92 1011.5
20260504025503 53 79 0.0 0.0 0.00 0.08 0.00 92 1011.5
20260504025004 53 79 0.0 0.0 0.00 0.08 0.00 92 1011.4
20260504024004 53 79 0.0 0.0 0.00 0.08 0.00 92 1011.4
20260504023504 53 79 0.0 0.0 0.00 0.08 0.00 92 1011.4
20260504022504 53 79 0.0 0.0 0.00 0.08 0.00 92 1011.4
20260504022003 53 79 0.0 0.0 0.00 0.08 0.00 92 1011.4
20260504021503 53 79 0.0 0.0 0.00 0.08 0.00 92 1011.4
20260504020504 53 79 0.0 0.0 0.00 0.08 0.00 92 1011.4
20260504020004 53 79 0.0 0.0 0.00 0.08 0.00 92 1011.3
20260504015504 53 79 0.0 0.0 0.00 0.08 0.00 92 1011.3
20260504015003 53 79 0.0 0.0 0.00 0.08 0.00 92 1011.3
20260504014504 53 79 0.0 0.0 0.00 0.08 0.00 92 1011.3
20260504013504 53 79 0.0 0.0 0.00 0.08 0.00 92 1011.3
20260504013003 53 79 0.0 0.0 0.00 0.08 0.00 92 1011.3
20260504012503 53 79 0.0 0.0 0.00 0.08 0.00 92 1011.3
20260504012003 53 79 0.0 0.0 0.00 0.08 0.00 92 1011.3
20260504011504 53 79 0.0 0.0 0.00 0.08 0.00 92 1011.3
20260504011005 53 79 0.0 0.0 0.00 0.08 0.00 92 1011.3
20260504010503 53 79 0.0 0.0 0.00 0.08 0.00 92 1011.3
20260504010004 53 79 0.0 0.0 0.00 0.08 0.00 92 1011.3
20260504005004 53 79 0.0 0.0 0.00 0.08 0.00 92 1011.3
20260504004504 53 79 0.0 0.0 0.00 0.08 0.00 92 1011.3
20260504004003 52 79 0.0 0.0 0.00 0.08 0.00 92 1011.3
20260504003504 52 79 0.0 0.0 0.00 0.08 0.00 92 1011.2
20260504003004 52 79 0.0 0.0 0.00 0.08 0.00 92 1011.2
20260504002503 52 79 0.0 0.0 0.00 0.08 0.00 92 1011.3
20260504001503 52 79 0.0 0.0 0.00 0.08 0.00 92 1011.3
20260504001004 52 79 0.0 0.0 0.00 0.08 0.00 92 1011.3
20260504000503 52 79 0.0 0.0 0.00 0.08 0.00 92 1011.4
20260504000004 52 79 0.0 0.0 0.00 0.08 0.00 92 1011.3
20260503235504 52 79 0.0 0.0 0.00 0.08 0.00 92 1011.3
20260503235004 51 79 0.0 0.0 0.00 0.08 0.00 92 1011.3
20260503234503 51 79 0.0 0.0 0.00 0.08 0.00 91 1011.2
20260503234004 51 79 0.0 0.0 0.00 0.08 0.00 91 1011.2
20260503233504 51 79 0.0 0.0 0.00 0.08 0.00 91 1011.2
20260503233003 51 79 0.0 0.0 0.00 0.08 0.00 91 1011.2
20260503232504 51 79 0.0 0.0 0.00 0.08 0.00 91 1011.2
20260503232003 51 79 0.0 0.0 0.00 0.08 0.00 90 1011.1
20260503231504 51 79 0.0 0.0 0.00 0.08 0.00 90 1011.0
20260503230004 51 79 0.0 0.0 0.00 0.08 0.00 90 1010.9
20260503225504 52 79 0.0 0.0 0.00 0.08 0.08 90 1010.9
20260503225004 52 79 0.0 0.0 0.00 0.08 0.08 90 1010.8
20260503224503 52 79 0.0 2.6 0.00 0.08 0.08 90 1010.8
20260503224003 52 79 0.9 1.7 0.00 0.08 0.08 90 1010.7
20260503223503 52 79 0.9 1.7 0.00 0.08 0.08 90 1010.7
20260503223004 52 79 0.0 0.0 0.00 0.08 0.08 90 1010.7
20260503222504 52 79 0.0 0.0 0.00 0.08 0.08 90 1010.6
20260503222004 52 79 0.0 0.0 0.00 0.08 0.08 90 1010.6
20260503221004 53 79 0.0 0.0 0.00 0.08 0.08 89 1010.6
20260503220505 53 79 0.0 0.0 0.00 0.08 0.08 89 1010.5
20260503220004 53 79 0.0 0.0 0.00 0.08 0.08 89 1010.5
20260503215005 53 79 0.0 0.0 0.00 0.08 0.08 89 1010.4
20260503214504 53 79 0.0 1.7 0.00 0.08 0.08 89 1010.4
20260503214003 54 79 0.9 2.6 0.00 0.08 0.08 89 1010.4
20260503213004 54 42 1.7 2.6 0.00 0.08 0.08 89 1010.3
20260503212003 54 5 0.9 2.6 0.00 0.08 0.08 88 1010.3
20260503211504 54 5 0.0 1.7 0.00 0.08 0.08 88 1010.2
20260503211003 54 5 0.9 1.7 0.00 0.08 0.08 88 1010.1
20260503210504 55 5 0.9 1.7 0.00 0.08 0.08 88 1010.1
20260503210004 55 5 0.0 0.9 0.00 0.08 0.08 89 1010.0
20260503205504 55 5 0.0 1.7 0.00 0.08 0.08 89 1010.0